FW5357 Weather Reports


time (UTC)temp
F
wind
direction
speed
knots
gust
knots
rain 1hr
in
rain 24hr
in
rain mn
in
humidity
%
barometer
mb
20260505221532 76 344 4.3 9.6 0.00 0.00 0.00 45 1014.7
20260505213028 75 6 3.5 7.8 0.00 0.00 0.00 46 1014.9
20260505211605 74 4 2.6 6.1 0.00 0.00 0.00 46 1015.0
20260505210044 74 2 2.6 7.8 0.00 0.00 0.00 47 1015.2
20260505204536 73 357 3.5 7.8 0.00 0.00 0.00 47 1015.3
20260505203034 73 3 3.5 7.8 0.00 0.00 0.00 47 1015.4
20260505201534 73 359 3.5 8.7 0.00 0.00 0.00 47 1015.4
20260505200143 73 3 4.3 8.7 0.00 0.00 0.00 46 1015.5
20260505194530 73 2 3.5 8.7 0.00 0.00 0.00 47 1015.7
20260505193035 73 12 2.6 7.8 0.00 0.00 0.00 47 1015.6
20260505191537 73 355 2.6 7.0 0.00 0.00 0.00 47 1015.7
20260505190031 73 358 3.5 8.7 0.00 0.00 0.00 47 1015.8
20260505184530 72 347 2.6 7.0 0.00 0.00 0.00 48 1015.9
20260505183036 72 337 1.7 7.8 0.00 0.00 0.00 49 1015.9
20260505181535 71 311 1.7 7.8 0.00 0.00 0.00 51 1015.9
20260505180032 71 338 1.7 8.7 0.00 0.00 0.00 51 1015.9
20260505174532 69 326 0.9 7.8 0.00 0.00 0.00 53 1015.9
20260505171532 68 352 1.7 5.2 0.00 0.00 0.00 54 1015.9
20260505170032 68 338 0.9 6.1 0.00 0.00 0.00 56 1015.9
20260505164535 67 331 0.9 6.1 0.00 0.00 0.00 57 1015.9
20260505163031 65 310 0.9 5.2 0.00 0.00 0.00 62 1016.0
20260505153149 61 62 0.0 3.5 0.00 0.00 0.00 66 1015.7
20260505123036 49 247 0.0 0.0 0.00 0.00 0.00 88 1014.2
20260505120030 50 334 0.0 0.0 0.00 0.00 0.00 86 1014.1
20260505114534 51 307 0.0 0.0 0.00 0.00 0.00 86 1014.0
20260505113035 51 241 0.0 0.0 0.00 0.00 0.00 84 1013.9
20260505111534 52 226 0.0 1.7 0.00 0.00 0.00 82 1013.8
20260505101533 53 233 0.9 2.6 0.00 0.00 0.00 80 1013.4
20260505100108 54 267 0.0 1.7 0.00 0.00 0.00 78 1013.3
20260505094534 55 224 0.0 2.6 0.00 0.00 0.00 77 1013.3
20260505093108 55 318 0.0 0.0 0.00 0.00 0.00 76 1013.3
20260505091530 56 14 0.0 3.5 0.00 0.00 0.00 75 1013.1
20260505090036 56 23 0.0 2.6 0.00 0.00 0.00 75 1012.9
20260505084532 56 82 0.0 2.6 0.00 0.00 0.00 75 1013.0
20260505083033 56 154 0.0 2.6 0.00 0.00 0.00 74 1013.0
20260505081606 56 241 0.0 0.9 0.00 0.00 0.00 73 1013.0
20260505080032 57 68 0.9 3.5 0.00 0.00 0.00 71 1012.9
20260505073031 57 17 0.0 2.6 0.00 0.00 0.00 69 1012.8
20260505071537 58 40 0.0 1.7 0.00 0.00 0.00 67 1012.8
20260505070030 59 128 0.0 3.5 0.00 0.00 0.00 65 1012.6
20260505064553 59 265 0.9 3.5 0.00 0.00 0.00 63 1012.6
20260505063028 60 238 0.9 4.3 0.00 0.00 0.00 62 1012.6
20260505061535 60 259 0.0 2.6 0.00 0.00 0.00 60 1012.6
20260505060036 62 215 1.7 3.5 0.00 0.00 0.00 56 1012.4
20260505054530 64 276 0.9 3.5 0.00 0.00 0.00 54 1012.3
20260505051530 64 231 2.6 6.1 0.00 0.00 0.00 53 1012.2
20260505050107 64 222 1.7 6.1 0.00 0.00 0.00 52 1012.1
20260505041606 67 236 2.6 7.8 0.00 0.00 0.00 47 1011.6
20260505034530 67 216 2.6 9.6 0.00 0.00 0.00 48 1011.1
20260505033036 68 195 0.0 4.3 0.00 0.00 0.00 46 1011.0
20260505031535 69 210 0.9 5.2 0.00 0.00 0.00 44 1010.8
20260505030108 70 207 4.3 8.7 0.00 0.00 0.00 42 1010.5
20260505024533 71 208 4.3 8.7 0.00 0.00 0.00 40 1010.4
20260505023030 72 208 4.3 8.7 0.00 0.00 0.00 39 1010.2
20260505021530 74 186 4.3 10.4 0.00 0.00 0.00 37 1010.1
20260505020034 75 184 4.3 9.6 0.00 0.00 0.00 35 1010.1
20260505014537 76 194 5.2 9.6 0.00 0.00 0.00 33 1010.1
20260505011536 79 205 6.1 12.2 0.00 0.00 0.00 32 1010.0
20260505010037 79 192 5.2 11.3 0.00 0.00 0.00 33 1010.0
20260505004535 78 127 2.6 10.4 0.00 0.00 0.00 39 1010.1
20260505003150 78 16 2.6 7.0 0.00 0.00 0.00 40 1010.1
20260505001536 79 27 4.3 11.3 0.00 0.00 0.00 39 1010.1
20260505000145 80 17 4.3 13.0 0.00 0.00 0.00 39 1010.1
20260504234535 80 12 3.5 9.6 0.00 0.00 0.00 39 1010.2
20260504233037 80 24 3.5 9.6 0.00 0.00 0.00 38 1010.3
20260504231652 80 16 3.5 8.7 0.00 0.00 0.00 37 1010.4
20260504230030 80 12 2.6 7.0 0.00 0.00 0.00 37 1010.5